Tracking 25620 objects as of 18-May-2022
HD Live streaming from Space Station
objects crossing your sky now

COSMOS 2251 DEB

Track COSMOS 2251 DEB now!
10-day predictions


NORAD ID: 33930
Int'l Code: 1993-036EK
Perigee: 718.2 km
Apogee: 751.0 km
Inclination: 74.0 °
Period: 99.3 minutes
Semi major axis: 7105 km
RCS: 0.0731 m2 (small)
Launch date: June 16, 1993
Source: Commonwealth of Independent States (former USSR) (CIS)
Launch site: PLESETSK MISSILE AND SPACE COMPLEX (PKMTR)

Note: This is SATELLITE DEBRIS
aabbcc
Your satellite tracking list
Your tracking list is empty




NASA's NSSDC Master Catalog

Two Line Element Set (TLE):
1 33930U 93036EK  22137.60889444  .00008628  00000-0  22508-2 0  9990
2 33930  74.0285  77.1894 0023062  55.9744 115.9119 14.49444073696681
Source of the keplerian elements: AFSPC